STARLINK-32123 (60284 NORAD) Tracking and Keplerian Element Data

This shows tracking and keplerian element data for the satellite.

Feedback or suggestion? Click here.




ElementValue
Catalog60284
NameSTARLINK-32123
Epoch Orbit1295
Epoch Day286.27075886
Epoch Year2024
RAAN277.2166
Inclination53.1585
Eccentricity0.0001382
Argument of Perigee94.5761
Mean Anonmoly265.5397
Mean Motion15.30173936
Decay Rate0.00023999
L11 60284U 24132G 24286.27075886 .00023999 00000+0 82044-3 0 9999
L22 60284 53.1585 277.2166 0001382 94.5761 265.5397 15.30173936 12958



Live tracking and technical data element details for STARLINK-32123 (NORAD 60284). STARLINK-32123 can be tracked NOW for your location showing map with azimuth and elevation plus other details from your city location.







IsCatalogInMostPopularTable: catalog: 60284, numindb: 12
Update: records affected: 1



GetName: 60284 STARLINK-32123

Hit Count: updated at: Thu, 23 Jan 2025 14:53:20 GMT